Location: Newark
(7.0858°N, 171.3717°E)
Time: 08:37:54
(UTC+00:00)

S-56A Canister/Altair - Pass Details

Date: 04 December 2020
Orbit: 633 x 2499 km, 38.9° (Epoch: 27 January)

Event Time Altitude Azimuth Distance (km) Brightness Sun altitude
Rises 00:20:42 0° 193° (SSW) 5,367 12.3 60.6°
Reaches altitude 10° 00:25:58 10° 175° (S) 4,680 12.2 60.6°
Maximum altitude 00:33:59 18° 138° (SE) 4,388 12.0 60.6°
Drops below altitude 10° 00:42:39 10° 102° (ESE) 5,158 11.9 60.3°
Sets 00:48:48 0° 85° (E) 6,138 12.0 60.1°
